Regional Weather Roundup
Issued by NWS Northern Indiana

Home | Current Version | Previous Version | Text Only | Print | Product List | Glossary Off
Versions: 1 2 3 4 5 6 7 8 9 10 11 12 13 14 15 16 17 18 19 20 21 22 23 24 25 26 27 28 29 30 31 32 33 34 35 36 37 38 39 40 41 42 43 44 45 46 47 48 49 50

000
ASUS43 KIWX 220610
RWRIWX

KIWX WEATHER ROUNDUP
NATIONAL WEATHER SERVICE NORTHERN INDIANA
200 AM EDT WED OCT 22 2014

NOTE: "FAIR" INDICATES FEW OR NO CLOUDS BELOW 12,000 FEET WITH NO
SIGNIFICANT WEATHER AND/OR OBSTRUCTIONS TO VISIBILITY.

* THESE STATIONS ARE NOT UNDER NWS QUALITY CONTROL. THEY ALSO MAY NOT
  REPORT WEATHER SUCH AS PRECIPITATION OR FOG.

INZ001>027-220700-
NORTHERN INDIANA

CITY           SKY/WX    TMP DP  RH WIND       PRES   REMARKS
GARY*          CLEAR     38  36  92 CALM      30.26R
VALPARAISO     CLEAR     38  35  89 CALM      30.25S
6HR MIN TEMP:  37; 6HR MAX TEMP:  49;

MICHIGAN CITY* CLEAR     34  34 100 CALM      30.26R
LAPORTE*       CLEAR     35  35 100 CALM      30.25S
6HR MIN TEMP:  34; 6HR MAX TEMP:  50;

KNOX*          CLEAR     35  33  92 CALM      30.24S
6HR MIN TEMP:  32; 6HR MAX TEMP:  81;

SOUTH BEND     CLEAR     35  32  88 CALM      30.25S
6HR MIN TEMP:  35; 6HR MAX TEMP:  49;

GOSHEN         CLEAR     36  35  96 NE5       30.25R
6HR MIN TEMP:  35; 6HR MAX TEMP:  48;

MONTICELLO*    CLEAR     38  36  91 CALM      30.24R
6HR MIN TEMP:  38; 6HR MAX TEMP:  47;

LOGANSPORT*    CLEAR     37  32  81 N3        30.24R
ROCHESTER*     CLEAR     43  37  81 CALM      30.24S
WARSAW*        CLEAR     36  34  93 CALM      30.24S
ANGOLA*        CLEAR     37  21  52 N3        30.24S
FORT WAYNE     PTCLDY    39  34  82 N6        30.24S
6HR MIN TEMP:  39; 6HR MAX TEMP:  48;

HUNTINGTON*    CLEAR     39  36  88 N3        30.23R
6HR MIN TEMP:  39; 6HR MAX TEMP:  48;

PERU/GRISSOM   CLEAR     40  37  90 NE3       30.22S
6HR MIN TEMP:  39; 6HR MAX TEMP:  50;

MARION*        CLEAR     42  35  74 NE5       30.22F
6HR MIN TEMP:  33; 6HR MAX TEMP:  90;


$$
INZ028>050-220700-
CENTRAL INDIANA

CITY           SKY/WX    TMP DP  RH WIND       PRES   REMARKS
LAFAYETTE      CLEAR     39  36  89 CALM      30.24S
6HR MIN TEMP:  39; 6HR MAX TEMP:  48;

KOKOMO*        CLEAR     39  34  81 NE5       30.23S
6HR MIN TEMP:  39; 6HR MAX TEMP:  52;

MUNCIE*        MOCLDY    44  36  73 NE7       30.21S
6HR MIN TEMP:  44; 6HR MAX TEMP:  51;

INDIANAPOLIS   PTCLDY    44  36  73 NE10      30.21R
6HR MIN TEMP:  44; 6HR MAX TEMP:  50;


$$
MIZ043>046-050>051-056>058-064>065-071>073-077>080-220700-
SOUTHWEST LOWER MICHIGAN

CITY           SKY/WX    TMP DP  RH WIND       PRES   REMARKS
BATTLE CREEK   CLEAR     36  32  85 CALM      30.26S
6HR MIN TEMP:  33; 6HR MAX TEMP:  43;

BENTON HARBOR  CLEAR     31  30  96 CALM      30.26R
6HR MIN TEMP:  30; 6HR MAX TEMP:  41;

COLDWATER*     CLEAR     38  35  89 N5        30.25R
6HR MIN TEMP:  38; 6HR MAX TEMP:  47;

HILLSDALE*     CLOUDY    39  37  94 NW6       30.22F
6HR MIN TEMP:  37; 6HR MAX TEMP:  44;

HOLLAND        CLEAR     38  34  85 E3        30.28S
6HR MIN TEMP:  37; 6HR MAX TEMP:  44;

GRAND RAPIDS   CLEAR     36  33  89 NE5       30.28S
6HR MIN TEMP:  35; 6HR MAX TEMP:  46;

KALAMAZOO      CLEAR     34  32  92 N3        30.27S
6HR MIN TEMP:  33; 6HR MAX TEMP:  43;

STURGIS*       CLEAR     36  36 100 N5        30.25R
THREE RIVERS*  FAIR      37  35  96 CALM      30.26S
6HR MIN TEMP:  35; 6HR MAX TEMP:  47;


$$
OHZ001>008-015>018-024>025-220700-
NORTHWEST OHIO

CITY           SKY/WX    TMP DP  RH WIND       PRES   REMARKS
WAUSEON*       CLOUDY    45  37  76 N7G14     30.21F
DEFIANCE       CLOUDY    45  36  70 N6        30.23R
6HR MIN TEMP:  44; 6HR MAX TEMP:  47;

FINDLAY        CLOUDY    45  38  76 N9        30.18S
6HR MIN TEMP:  45; 6HR MAX TEMP:  47;

TOLEDO EXPRESS CLOUDY    44  36  73 N8        30.20F
6HR MIN TEMP:  44; 6HR MAX TEMP:  45;

TOLEDO METCALF CLOUDY    46  37  71 N9        30.20F
6HR MIN TEMP:  46; 6HR MAX TEMP:  46;

LIMA           CLOUDY    45  37  73 N8        30.19S
6HR MIN TEMP:  45; 6HR MAX TEMP:  47;


$$
AND FOR LAKE MICHIGAN COASTAL AND OPEN LAKE BUOY OBSERVATIONS

STATION/POSITION TEMP    WIND        PRES    VSBY  WAVE
                 AIR SEA DIR/SP/G                  HT/PER
                 (F)     (DEG/KT/KT) (MB)    (MI)  (FT/S)
CALUMET HARBOR    50     120/  6/  7 1023.1R
MICHIGAN CITY     43     140/  1/  2   N/A
SAINT JOSEPH      39                 1024.4F
SOUTH LAKE BUOY   50 54   70/ 12/ 14 1024.8R         4/ 6

$$
&&



USA.gov is the U.S. government's official web portal to all federal, state and local government web resources and services.